BREEZE-M DEB (TANK), 40386

Orbit data source: Space-Track

BREEZE-M DEB (TANK), 40386 is space debris in HEO originally from a launch on Sun, 01 Feb 2015 UTC launched from the Tyuratam Missile And Space Complex (TTMTR). Debris objects in space refer to the collection of defunct objects orbiting the Earth. Examples of debris include non-operational satellites, rocket bodies, and fragments generated from explosions, collisions, or faulty payload assembly.

Loading next visibility...
Identifier
40386, 2015-005C
Orbit
HEO
Country
Flag of CISCIS
Related business
Manufacturer
Khrunichev
Mission
Spacecraft
Bus & Motor
BRIZ TANK, Unknown motor
Mass
~1,000 kg wet, 1,000 kg dry
Launch date (UTC)
2015-02-01 (11 years ago)
Launch vehicle
Unknown
Launch site
Tyuratam Missile And Space Complex (TTMTR)
Object type
Payload
Rocket body
Debris
Shape & HBR
Torus, 2.0 m
Radar Cross Section
8.218 m², Large (>1 m²)

Expand to show TLE details & history
Last TLE update: 3 days ago

TLE from 3 days ago
0 BREEZE-M DEB (TANK)
1 40386U 15005C   26170.90494161  .00001596  00000-0  58003-3 0  9992
2 40386  50.7329  42.6293 5133037 159.3082 232.9432  5.34370642215899
Epoch: 2026-06-19T21:43Z
TLE epoch observation values (Epoch: 2026-06-19T21:43:06.955Z)
Latitude
0.00003°
Longitude
168.72916°
Altitude
13,197.948 km
Speed
3.448 km/s
True Right ascension
02h 50m 32s
True Declination
0° 00' 00"
Sunlit
Object was in daylight at epoch
Visualization orbit readout
Latitude
Unknown
Longitude
Unknown
Altitude
Unknown
Speed
Unknown
Apparent Right ascension
Unknown
Apparent Declination
Unknown
Sunlit
N/A
Visualization observer readout
Local Sidereal Time
21:39:31
Azimuth
Unknown
Elevation
Unknown
Doppler factor
Unknown
Orbital elements
Apogee altitude
14,536.442 km
Perigee altitude
348.238 km
Semi-major axis
13,820.477 km
Eccentricity
0.5133
Inclination
50.7329°
RAAN
42.6293°
Arg. of periapsis
159.3082°
True anomaly
200.73384°
Mean anomaly
232.9432°
Eccentric anomaly
215.7573°
Mean motion
1.33585 °/min
Orbital period
269.49 mins
BSTAR
0.00058003
Loading maneuver chart data...
Computing Atmospheric mass density...
Loading historical data...
Loading historical data...
Loading historical data...
Loading historical data...
Loading historical data...
Loading historical data...
Loading historical data...
Other satellites on launch #5 in the year 2015 (2015-02-01 UTC)

Documentation

Showing up to 5 results
|